COSMOS 535

Satellite information

Favourite Embed

Satellite Type and Status

PAYLOADIN ORBIT

Key statistics

Satellite COSMOS 535 at a glance.

Uptime

19242

Days in orbit

Revolutions

≈ 12.6

Per day

Orbit

LEO

Low Earth Orbit

Inclination

74.0

Latest

Satellite identification and parameters

Extended collection of information and parameters for COSMOS 535.

Object identification

Identified? True

Debris? False

Object name: COSMOS 535

International designator: 1972-087H

Object number (NORAD): 6270

Object ID (CCSDS): 6270

Country: COMMONWEALTH OF INDEPENDENT STATES (CIS)

Current information (Y/N): Y

RCS size: MEDIUM

Orbital parameters

Period: 114.345 minutes

Inclination: 74.0365 deg

SMA: 7803.781 km

Apoapsis: 1468.094 km

Periapsis: 1383.199 km

RAAN: 357.6387 deg

Eccentricy: 0.0054394

Argument of periapsis: 188.6294 deg

Mean anomaly: 285.7922 deg

Mean motion: 12.5934614 rev/day

Mean motion (dot): 0.00000002 rev/day2

B* drag term: 0.0001059 1/REarth

Two-line elements (TLE)

Creation date: July 8, 2025, 2:27 a.m.

Reference frame: TEME

Reference center: EARTH

Epoch: July 7, 2025, 10:39 p.m. UTC

TLE line 0: 0 COSMOS 535

TLE line 1: 1 06270U 72087H 25188.94408866 .00000002 00000-0 10590-3 0 9998

TLE line 2: 2 06270 74.0365 357.6387 0054394 188.6294 285.7922 12.59346140421696

Live tracking on map

Real-time ground track for satellite COSMOS 535.

In-orbit conjunctions

A list of the most updated potential collisions computed for object COSMOS 535.

Target Orbit TCA Probability of collision Miss distance Type
COSMOS 1795 LEO 2025-04-28 04:05:46 0.0003195953 142.0 (m) PAYLOAD

Associated space launch

Military communications satellites

COSMOS 535 was lifted into orbit during the mission ‘Kosmos-3M | Strela-1M 33-40’, on board a Kosmos-3M space rocket.

The launch took place on Nov. 1, 1972, 2:08 a.m. from 132/2.

For more information about the launch, click the button.

Launch to space Kosmos-3M | Strela-1M 33-40
Kosmos-3M | Strela-1M 33-40

Agency: N/A

Status: Launch Successful

Launch date: Nov. 1, 1972, 2:08 a.m. UTC

Rocket: Kosmos-3M

Launch pad: 132/2

Location: Plesetsk Cosmodrome, Russian Federation

...

Latest news about this satellite

There are no fresh news available about this satellite. Check back as we update our databases every day.


Newsletter sign-up

Weekly statistics, charts and insights to help you stay on top of the space industry.